Date String (YYYY-MM-DD hh:mm:ss) UTC,Instrument flags,absolute air pressure of the measurement (hPa),sample flow rate (lpm),inlet stack bypass flow (lpm),air temperature of the measurement (°C),ambient temperature measured by the external sensor (°C),aerosol sample conditioner tube jacket temperature (°C),OPC LED temperature (°C),internal box temperature (°C),relative humidity of the measurement (%),span deviation,mass concentration of particles derived from Lorenz-Mie calculation of OPC scattering (μg/m³),mass concentration of particles derived from Lorenz-Mie calculation of OPC scattering (μg/m³),mass concentration of particles derived from Lorenz-Mie calculation of OPC scattering (μg/m³)
DateTimeUTC,F1_M11,P_M11,Q1_M11,Q2_M11,T1_M11,T2_M11,T3_M11,T4_M11,T5_M11,U1_M11,ZSPAN_M11,X0_M11,X2_M11,X1_M11
2023-08-04 08:00:00,SystemResetWarning,0833.2,5.01,000.00,030.5,027.5,000.0,038.6,031.2,34.3,0000.0,0008.42,0004.38,0003.81
2023-08-04 08:01:00,SystemResetWarning,0833.2,5.01,000.00,030.5,027.7,000.0,038.6,031.3,33.8,0000.0,0008.55,0004.41,0003.84
2023-08-04 08:02:00,SystemResetWarning,0833.2,5.00,000.00,030.5,027.9,000.0,038.6,031.3,33.5,0000.0,0008.69,0004.43,0003.87
2023-08-04 08:03:00,SystemResetWarning,0833.2,4.99,000.00,030.5,028.0,000.0,038.6,031.3,33.5,0000.0,0008.77,0004.47,0003.88
2023-08-04 08:04:00,SystemResetWarning,0833.2,4.99,000.00,030.5,028.2,000.0,038.7,031.4,33.3,0000.0,0008.86,0004.51,0003.89
2023-08-04 08:05:00,SystemResetWarning,0833.2,5.00,000.00,030.5,028.3,000.0,038.7,031.4,33.2,0000.0,0008.72,0004.53,0003.91
2023-08-04 08:06:00,SystemResetWarning,0833.1,5.00,000.00,030.5,028.3,000.0,038.7,031.4,33.3,0000.0,0008.58,0004.55,0003.94
2023-08-04 08:07:00,SystemResetWarning,0833.2,5.01,000.00,030.5,028.4,000.0,038.7,031.5,33.1,0000.0,0008.73,0004.58,0003.97
2023-08-04 08:08:00,SystemResetWarning,0833.0,5.01,000.00,030.6,028.5,000.0,038.8,031.5,33.1,0000.0,0008.87,0004.59,0003.98
2023-08-04 08:09:00,SystemResetWarning,0833.3,5.00,000.00,030.6,028.5,000.0,038.8,031.5,33.2,0000.0,0008.83,0004.57,0003.97
2023-08-04 08:10:00,SystemResetWarning,0833.1,4.99,000.00,030.6,028.6,000.0,038.8,031.6,33.3,0000.0,0008.77,0004.53,0003.95
2023-08-04 08:11:00,SystemResetWarning,0833.2,4.99,000.00,030.6,028.6,000.0,038.8,031.6,33.2,0000.0,0009.58,0004.52,0003.93
2023-08-04 08:12:00,SystemResetWarning,0833.1,4.99,000.00,030.6,028.5,000.0,038.8,031.6,33.1,0000.0,0009.58,0004.46,0003.91
2023-08-04 08:13:00,SystemResetWarning,0833.3,5.00,000.00,030.6,026.9,000.0,038.7,031.4,32.9,0000.0,0009.24,0004.43,0003.89
2023-08-04 08:14:00,SystemResetWarning,0833.2,5.00,000.00,030.5,025.7,000.0,038.6,031.2,33.0,0000.0,0009.40,0004.46,0003.90
2023-08-04 08:15:00,SystemResetWarning,0833.1,5.00,000.00,030.3,025.5,000.0,038.5,030.9,33.2,0000.0,0009.47,0004.44,0003.91
2023-08-04 08:16:00,SystemResetWarning,0833.0,5.01,000.00,030.2,025.8,000.0,038.6,030.8,33.4,0000.0,0009.65,0004.40,0003.90
2023-08-04 08:17:00,SystemResetWarning,0833.0,5.00,000.00,030.1,026.2,000.0,038.6,030.9,33.6,0000.0,0009.72,0004.34,0003.88
2023-08-04 08:18:00,SystemResetWarning,0833.0,4.99,000.00,030.1,026.5,000.0,038.6,030.9,33.7,0000.0,0010.09,0004.32,0003.86
2023-08-04 08:19:00,SystemResetWarning,0833.0,5.00,000.00,030.0,026.9,000.0,038.5,031.0,33.8,0000.0,0009.98,0004.30,0003.85
2023-08-04 08:20:00,SystemResetWarning,0833.1,5.01,000.00,030.0,027.2,000.0,038.5,031.1,33.7,0000.0,0010.02,0004.31,0003.85
2023-08-04 08:21:00,SystemResetWarning,0833.0,4.99,000.00,030.0,027.4,000.0,038.5,031.1,33.3,0000.0,0010.05,0004.31,0003.83
2023-08-04 08:22:00,SystemResetWarning,0833.5,4.99,000.00,030.0,027.6,000.0,038.5,031.1,33.2,0000.0,0009.28,0004.29,0003.80
2023-08-04 08:23:00,SystemResetWarning,0833.2,5.00,000.00,030.0,027.8,000.0,038.5,031.2,33.0,0000.0,0008.73,0004.29,0003.79
2023-08-04 08:24:00,SystemResetWarning,0833.0,5.01,000.00,030.0,027.9,000.0,038.5,031.2,33.2,0000.0,0008.78,0004.29,0003.79
2023-08-04 08:25:00,SystemResetWarning,0833.0,5.00,000.00,030.0,028.1,000.0,038.5,031.3,33.5,0000.0,0008.70,0004.27,0003.77
2023-08-04 08:26:00,SystemResetWarning,0833.0,4.99,000.00,030.0,028.2,000.0,038.5,031.3,33.7,0000.0,0008.56,0004.26,0003.76
2023-08-04 08:27:00,SystemResetWarning,0833.0,4.99,000.00,030.1,028.3,000.0,038.5,031.3,33.7,0000.0,0008.37,0004.30,0003.77
2023-08-04 08:28:00,SystemResetWarning,0833.0,5.00,000.00,030.1,028.3,000.0,038.5,031.4,33.6,0000.0,0008.53,0004.35,0003.77
2023-08-04 08:29:00,SystemResetWarning,0832.9,5.00,000.00,030.1,028.4,000.0,038.5,031.4,33.6,0000.0,0008.12,0004.34,0003.77
2023-08-04 08:30:00,SystemResetWarning,0833.0,5.00,000.00,030.1,028.4,000.0,038.5,031.4,33.6,0000.0,0007.98,0004.35,0003.78
2023-08-04 08:31:00,SystemResetWarning,0833.1,5.00,000.00,030.1,028.5,000.0,038.5,031.4,33.4,0000.0,0008.01,0004.37,0003.78
2023-08-04 08:32:00,SystemResetWarning,0833.2,5.00,000.00,030.1,028.5,000.0,038.5,031.5,33.5,0000.0,0008.20,0004.38,0003.79
2023-08-04 08:33:00,SystemResetWarning,0833.2,5.01,000.00,030.1,028.6,000.0,038.5,031.4,33.7,0000.0,0008.27,0004.37,0003.79
2023-08-04 08:34:00,SystemResetWarning,0833.0,5.00,000.00,030.1,028.6,000.0,038.5,031.5,33.7,0000.0,0008.19,0004.35,0003.80
2023-08-04 08:35:00,SystemResetWarning,0832.9,4.99,000.00,030.2,028.6,000.0,038.5,031.5,33.8,0000.0,0008.26,0004.34,0003.80
2023-08-04 08:36:00,SystemResetWarning,0832.9,4.98,000.00,030.2,027.7,000.0,038.5,031.5,33.8,0000.0,0008.17,0004.32,0003.81
2023-08-04 08:37:00,SystemResetWarning,0833.3,5.01,000.00,030.1,025.9,000.0,038.3,031.2,33.4,0000.0,0008.26,0004.34,0003.81
2023-08-04 08:38:00,SystemResetWarning,0833.2,5.00,000.00,030.0,025.4,000.0,038.3,030.9,32.8,0000.0,0008.28,0004.35,0003.81
2023-08-04 08:39:00,SystemResetWarning,0832.8,5.01,000.00,029.8,025.5,000.0,038.3,030.7,33.1,0000.0,0007.99,0004.33,0003.82
2023-08-04 08:40:00,SystemResetWarning,0832.7,5.01,000.00,029.7,025.9,000.0,038.3,030.7,33.1,0000.0,0007.95,0004.34,0003.81
2023-08-04 08:41:00,SystemResetWarning,0832.9,5.00,000.00,029.7,026.3,000.0,038.3,030.8,33.7,0000.0,0008.99,0004.34,0003.80
2023-08-04 08:42:00,SystemResetWarning,0832.8,5.00,000.00,029.7,026.6,000.0,038.3,030.9,33.8,0000.0,0009.16,0004.32,0003.79
2023-08-04 08:43:00,SystemResetWarning,0832.7,5.00,000.00,029.7,027.0,000.0,038.3,030.9,34.1,0000.0,0009.02,0004.30,0003.76
2023-08-04 08:44:00,SystemResetWarning,0832.8,5.00,000.00,029.7,027.2,000.0,038.2,031.0,34.2,0000.0,0008.94,0004.29,0003.75
2023-08-04 08:45:00,SystemResetWarning,0832.7,5.00,000.00,029.7,027.5,000.0,038.2,031.0,34.1,0000.0,0009.02,0004.32,0003.76
2023-08-04 08:46:00,SystemResetWarning,0832.7,5.00,000.00,029.7,027.6,000.0,038.2,031.0,33.8,0000.0,0008.94,0004.34,0003.75
2023-08-04 08:47:00,SystemResetWarning,0832.7,5.00,000.00,029.7,027.8,000.0,038.2,031.1,33.9,0000.0,0008.96,0004.35,0003.75
2023-08-04 08:48:00,SystemResetWarning,0832.7,5.00,000.00,029.7,027.9,000.0,038.2,031.1,33.8,0000.0,0008.94,0004.33,0003.76
2023-08-04 08:49:00,SystemResetWarning,0832.7,5.00,000.00,029.7,028.1,000.0,038.2,031.2,33.6,0000.0,0008.88,0004.29,0003.75
2023-08-04 08:50:00,SystemResetWarning,0832.7,4.99,000.00,029.7,028.2,000.0,038.2,031.2,33.7,0000.0,0008.80,0004.28,0003.75
2023-08-04 08:51:00,SystemResetWarning,0832.7,4.99,000.00,029.8,028.2,000.0,038.2,031.2,33.9,0000.0,0008.77,0004.28,0003.77
2023-08-04 08:52:00,SystemResetWarning,0832.6,5.00,000.00,029.8,028.3,000.0,038.2,031.2,33.9,0000.0,0008.00,0004.30,0003.79
2023-08-04 08:53:00,SystemResetWarning,0832.6,5.00,000.00,029.8,028.4,000.0,038.2,031.3,33.8,0000.0,0007.55,0004.32,0003.79
2023-08-04 08:54:00,SystemResetWarning,0832.7,5.00,000.00,029.8,028.4,000.0,038.2,031.3,33.7,0000.0,0007.58,0004.34,0003.82
2023-08-04 08:55:00,SystemResetWarning,0832.6,5.00,000.00,029.8,028.5,000.0,038.3,031.3,33.2,0000.0,0007.70,0004.37,0003.85
2023-08-04 08:56:00,SystemResetWarning,0832.6,5.00,000.00,029.9,028.5,000.0,038.3,031.4,33.1,0000.0,0007.68,0004.37,0003.87
2023-08-04 08:57:00,SystemResetWarning,0832.6,5.00,000.00,029.9,028.5,000.0,038.3,031.4,33.2,0000.0,0007.70,0004.38,0003.89
2023-08-04 08:58:00,SystemResetWarning,0832.6,5.00,000.00,029.9,028.6,000.0,038.3,031.4,32.8,0000.0,0007.71,0004.39,0003.89
2023-08-04 08:59:00,SystemResetWarning,0832.7,4.99,000.00,029.9,028.6,000.0,038.3,031.4,31.7,0000.0,0007.68,0004.40,0003.89
